User: anonymous   Login
Location: Unspecified
(0.0000°N, 0.0000°E)
Time: 06:10:09
(UTC+00:00)
Language:

NOSS 3-4 (A) - Orbit

View from above orbital plane
View from above orbital plane
View from above satellite
View from above satellite

Ground track
Ground track

The orbit data is extracted from the following two-line orbital elements,

1 31701U 07027A   17288.99745167 0.00000000  00000-0  00000-0 0    05
2 31701  63.4042 135.4001 0199000  22.9418 337.0582 13.40736178    00
Epoch (UTC): 15 October 2017 23:56:19
Eccentricity: 0.0199000
inclination: 63.4042°
perigee height: 957 km
apogee height: 1255 km
right ascension of ascending node: 135.4001°
argument of perigee: 22.9418°
revolutions per day: 13.40736178
mean anomaly at epoch: 337.0582°
orbit number at epoch: 0

The dashed part of the orbit path shows where the satellite is in the earth's shadow,  

DLR